This is the latest recevied weather packets stored in our database for station/object WC4PEM-1. If no packets are shown the sender has not sent any weather packets the latest 10 day(s).
| Time | Temp. | Humidity | Pressure | Rain* | Wind** | Luminosity | Snow |
|---|---|---|---|---|---|---|---|
| 1777987704 | 24.44° C | 68% | 1015 hPa | 0 mm | - | 121 W/m² | - |
| 1777987587 | 24.44° C | 67% | 1015 hPa | 0 mm | - | 95 W/m² | - |
| 1777987404 | 24.44° C | 67% | 1015 hPa | 0 mm | - | 95 W/m² | - |
| 1777987104 | 24.44° C | 68% | 1015 hPa | 0 mm | - | 84 W/m² | - |
| 1777986804 | 24.44° C | 70% | 1015 hPa | 0 mm | - | 84 W/m² | - |
| 1777986504 | 23.89° C | 69% | 1015 hPa | 0 mm | - | 97 W/m² | - |
| 1777986204 | 23.89° C | 70% | 1015.1 hPa | 0 mm | - | 93 W/m² | - |
| 1777985904 | 23.89° C | 71% | 1015 hPa | 0 mm | - | 88 W/m² | - |
| 1777985604 | 23.33° C | 71% | 1014.9 hPa | 0 mm | - | 95 W/m² | - |
| 1777985304 | 23.33° C | 73% | 1015 hPa | 0 mm | - | 121 W/m² | - |
| 1777985004 | 22.78° C | 74% | 1015 hPa | 0 mm | - | 167 W/m² | - |
| 1777984704 | 22.78° C | 74% | 1015.1 hPa | 0 mm | - | 165 W/m² | - |
| 1777984416 | 22.22° C | 75% | 1015.1 hPa | 0 mm | - | 274 W/m² | - |
| 1777984404 | 22.78° C | 75% | 1015.1 hPa | 0 mm | - | 95 W/m² | - |
| 1777984104 | 22.22° C | 75% | 1015.1 hPa | 0 mm | - | 274 W/m² | - |
| 1777983804 | 22.22° C | 76% | 1015.2 hPa | 0 mm | - | 123 W/m² | - |
| 1777983504 | 21.67° C | 77% | 1015.2 hPa | 0 mm | - | 125 W/m² | - |
| 1777983204 | 21.67° C | 78% | 1015.2 hPa | 0 mm | - | 148 W/m² | - |
| 1777982904 | 21.11° C | 80% | 1015.1 hPa | 0 mm | - | 232 W/m² | - |
| 1777982604 | 20.56° C | 82% | 1015.1 hPa | 0 mm | - | 102 W/m² | - |
| 1777982304 | 20.56° C | 84% | 1015 hPa | 0 mm | - | 86 W/m² | - |
| 1777982006 | 20° C | 85% | 1014.9 hPa | 0 mm | - | 118 W/m² | - |
| 1777981704 | 19.44° C | 86% | 1014.8 hPa | 0 mm | - | 72 W/m² | - |
| 1777981404 | 19.44° C | 87% | 1014.8 hPa | 0 mm | - | 91 W/m² | - |
| 1777981104 | 18.89° C | 88% | 1014.7 hPa | 0 mm | - | 79 W/m² | - |
* Rain latest hour (hover to see other rain measurements)
** Current wind speed in m/s (hover to see current wind gust speed)